Location: Aydie
(43.5695°N, 0.1043°W)
Time: 11:22:19
(UTC+00:00)

USA 281 - Pass Details

Date: 17 November 2025
Orbit: 1079 x 1080 km, 106.0° (Epoch: 08 December)

Event Time Altitude Azimuth Distance (km) Brightness Sun altitude
Exits shadow 19:02:02 47° 36° (NE) 1,405 3.5 -26.8°
Drops below altitude 10° 19:07:31 10° 346° (NNW) 2,928 5.6 -27.8°
Sets 19:10:07 0° 341° (NNW) 3,888 6.4 -28.3°
